Regional Weather Roundup
Issued by NWS Raleigh/Durham, NC

Home | Current Version | Previous Version | Text Only | Print | Product List | Glossary On
Versions: 1 2 3 4 5 6 7 8 9 10 11 12 13 14 15 16 17 18 19 20 21 22 23 24 25 26 27 28
000
ASUS42 KRAH 241510
RWRRAH
NORTH CAROLINA WEATHER ROUNDUP
NATIONAL WEATHER SERVICE RALEIGH NC
1000 AM EST FRI NOV 24 2017

NOTE: "FAIR" INDICATES FEW OR NO CLOUDS BELOW 12,000 FEET WITH NO
SIGNIFICANT WEATHER AND/OR OBSTRUCTIONS TO VISIBILITY.

NCZ001-053-055-056-065-067-241600-
WESTERN NORTH CAROLINA

CITY           SKY/WX    TMP DP  RH WIND       PRES   REMARKS
ASHEVILLE      SUNNY     42  34  73 CALM      30.05S
JEFFERSON      SUNNY     40  32  74 CALM      30.02S
MORGANTON      SUNNY     41  34  75 CALM      30.09S
HICKORY        SUNNY     41  34  76 NW5       30.05S
RUTHERFORDTON  SUNNY     43  33  69 CALM      30.07S
MOUNT AIRY     SUNNY     44  33  65 CALM      30.07S
BOONE          SUNNY     40  34  79 CALM      30.03S
$$

NCZ021-022-025-041-071-084-088-241600-
CENTRAL NORTH CAROLINA

CITY           SKY/WX    TMP DP  RH WIND       PRES   REMARKS
CHARLOTTE      MOSUNNY   47  35  63 NW5       30.06S
GREENSBORO     MOSUNNY   45  32  60 SW5       30.05R
WINSTON-SALEM  SUNNY     44  31  60 CALM      30.07R
RALEIGH-DURHAM MOSUNNY   46  32  58 E6        30.07F
FORT BRAGG     SUNNY     46  33  62 NE6       30.06F
FAYETTEVILLE   SUNNY     46  34  62 NE9       30.06F
BURLINGTON     SUNNY     43  33  68 CALM      30.06S
LAURINBURG     SUNNY     47  35  63 NE10      30.07F
$$

NCZ011-015-027-028-043-044-047-080-103-241600-
NORTHEASTERN NORTH CAROLINA

CITY           SKY/WX    TMP DP  RH WIND       PRES   REMARKS
ROCKY MT-WILSO SUNNY     43  34  70 N8        30.09F
GREENVILLE     SUNNY     45  32  61 NE7       30.09F
WASHINGTON     CLOUDY    45  35  68 NE7       30.08S
ELIZABETH CITY SUNNY     48  39  71 NE3       30.08S
MANTEO         PTSUNNY   51  40  64 NE10      30.07S
CAPE HATTERAS  PTSUNNY   56  49  77 NE7       30.02F
$$

NCZ078-087-090-091-093-098-101-241600-
SOUTHEASTERN NORTH CAROLINA

CITY           SKY/WX    TMP DP  RH WIND       PRES   REMARKS
LUMBERTON      SUNNY     48  34  58 NE9       30.06F
GOLDSBORO      NOT AVBL
KINSTON        SUNNY     46  34  61 N12       30.07F
KENANSVILLE    CLOUDY    45  30  57 NE7       30.07F
NEW BERN       CLOUDY    41  37  86 N10       30.07S
CHERRY POINT   NOT AVBL
BEAUFORT       CLOUDY    49  43  80 NE13      30.02F
JACKSONVILLE   CLOUDY    43  36  76 N10       30.03F
WILMINGTON     CLOUDY    48  35  60 NE12      30.03F
$$





USA.gov is the U.S. government's official web portal to all federal, state and local government web resources and services.